Temperature
23 25 25 26 26 27 27 26 27 28 28 27 27 28 28 27 26 27 27 26 24 23 21 19 18 17 16 16 17 17 17 17 17 16 16 16 16 16 15 15 15 15 14 14
24 24 26 26 26 25 25 25 26 27 27 26 27 27 27 27 26 26 26 25 24 22 18 17 17 16 16 16 16 16 16 16 16 16 16 16 15 15 15 14 14 14 13 13
24 26 26 25 24 24 25 25 26 26 27 26 26 26 27 27 25 24 24 24 23 21 18 16 16 16 15 15 15 15 15 15 15 15 15 15 15 14 13 13 13 13 12 12
25 26 25 24 24 24 25 26 25 25 25 26 26 26 28 27 26 25 24 23 23 21 18 16 15 15 15 15 15 15 15 15 15 14 14 14 13 13 13 12 12 12 11 10
25 25 25 24 25 25 25 26 25 25 25 25 26 25 27 27 26 27 26 24 22 20 17 15 15 14 14 14 14 14 14 14 14 14 13 13 13 13 12 12 11 10 9 9
26 26 26 25 26 26 25 25 25 25 25 24 25 25 26 28 27 28 27 24 21 19 16 15 14 14 13 13 13 13 13 13 13 13 13 13 13 12 12 11 10 9 8 7
24 25 25 25 25 25 25 24 23 24 24 25 26 26 26 28 28 28 27 24 21 18 15 14 13 13 13 13 13 13 12 12 12 12 12 12 12 12 11 10 9 8 7 7
24 24 25 25 25 25 25 24 23 23 24 26 26 25 27 27 27 25 24 23 20 17 15 13 13 13 13 12 12 12 12 12 12 12 12 12 11 10 9 9 8 7 6 6
25 25 26 26 26 26 25 25 25 24 24 24 25 26 27 27 26 25 24 22 19 16 14 13 12 12 12 12 11 11 11 11 11 11 11 11 10 9 8 7 7 6 5 5
24 24 25 25 25 25 26 26 25 24 22 22 24 25 26 26 27 26 25 22 19 16 13 12 11 11 11 11 11 10 10 10 10 10 10 10 9 8 7 6 6 5 5 4
23 23 24 24 24 25 24 24 24 24 24 23 23 25 27 27 26 26 25 23 19 15 13 11 11 10 10 10 10 10 10 10 10 10 9 9 8 7 6 5 5 4 4 4
21 22 23 24 25 24 25 25 24 23 23 24 23 25 26 26 25 25 24 22 19 16 13 11 10 10 9 9 9 9 9 9 9 9 8 7 7 6 5 5 4 4 4 4
20 21 21 23 23 23 23 24 24 24 23 23 23 24 25 24 24 23 22 21 18 15 13 11 10 9 9 8 8 8 8 8 8 8 7 6 6 5 4 4 4 4 4 4
18 20 21 21 22 22 22 22 23 22 23 23 24 24 25 25 24 23 22 20 17 14 12 11 9 9 8 8 8 8 8 8 7 7 6 5 5 4 4 4 4 4 4 4
19 19 20 20 21 21 21 21 22 21 22 22 23 23 24 24 23 22 21 19 16 13 12 10 9 8 8 7 7 7 7 7 6 6 5 5 4 4 4 4 4 4 4 4
18 18 18 19 20 20 20 20 21 21 21 21 22 22 23 22 21 20 19 18 16 13 11 10 9 8 7 6 6 6 6 6 6 5 5 5 4 4 4 4 4 4 4 4
17 17 17 18 19 18 18 20 20 20 21 21 20 21 20 20 19 18 17 16 15 13 11 9 8 7 6 6 5 5 5 5 5 5 5 5 4 4 4 4 4 4 3 3
15 16 16 17 17 16 19 18 17 18 18 18 17 17 17 16 15 15 14 14 13 11 9 8 7 6 5 5 5 5 5 4 4 4 4 4 4 4 4 4 3 3 2 2
15 15 16 16 16 17 18 16 15 16 17 16 15 15 15 14 14 13 11 11 10 9 8 7 6 5 5 4 4 4 4 4 4 4 4 4 4 4 3 3 2 2 1 1
14 14 15 15 14 15 16 15 15 15 16 14 14 14 14 14 15 12 9 8 7 7 6 5 5 4 4 4 4 4 4 4 4 4 4 4 4 3 2 2 1 1 0 -0
14 14 14 14 14 15 14 14 15 15 15 13 12 12 12 12 11 8 7 6 6 5 5 4 4 4 3 3 3 3 4 4 4 3 3 3 3 2 1 0 -0 -0 -0 -1
14 14 14 14 13 14 13 13 13 13 11 11 11 11 10 8 7 6 5 5 4 4 4 3 3 3 3 3 3 4 3 3 3 3 3 2 1 1 0 -0 -0 -1 -1 -1
13 13 13 13 14 13 12 11 10 10 10 10 10 9 8 6 5 4 4 3 3 3 3 3 3 3 3 3 4 4 3 3 3 2 2 1 0 -0 -0 -0 -0 -1 -1 -1
13 12 12 12 13 11 9 9 8 8 8 8 8 7 6 5 4 3 3 3 3 3 3 3 3 3 4 4 4 3 3 3 2 1 1 1 0 0 -0 -1 -1 -1 -1 -2
12 11 11 11 10 9 8 7 6 6 6 6 6 5 5 4 4 3 3 3 3 3 3 3 4 4 4 4 3 3 2 2 1 1 1 1 1 0 -0 -1 -1 -1 -2 -2
10 10 9 8 7 7 6 5 5 5 5 5 5 4 4 4 4 4 3 3 4 4 4 4 4 4 4 3 3 2 2 2 2 1 1 1 1 0 0 -0 -1 -1 -2 -2
Wind_Speed
11 12 16 16 17 15 10 11 14 13 7 10 13 13 10 7 9 11 12 12 14 15 12 11 11 10 10 10 11 11 11 11 9 8 8 7 7 7 7 8 10 9 8 8
10 16 16 12 11 13 14 15 16 14 8 9 13 14 11 10 12 11 12 13 14 14 12 11 11 11 11 11 11 11 11 11 9 7 6 6 8 7 7 8 9 9 8 7
17 7 10 12 13 14 16 16 16 15 12 11 13 19 16 12 12 12 13 14 15 16 16 13 12 11 11 11 11 10 11 10 9 10 9 9 8 7 6 6 5 6 6 6
16 13 9 13 15 16 16 14 14 15 15 15 11 16 16 13 13 14 15 15 16 16 15 14 14 13 12 11 11 12 11 11 10 10 9 9 6 6 5 4 5 5 5 4
13 14 16 16 15 15 14 10 12 14 15 17 15 14 16 10 13 16 17 16 15 15 15 14 14 14 13 12 12 11 12 11 10 8 8 7 7 7 6 5 5 3 3 3
17 9 12 14 13 12 11 9 10 13 14 19 18 17 16 12 12 13 13 15 15 14 14 14 14 14 13 12 12 12 12 11 10 9 9 8 9 8 6 4 3 1 1 1
20 17 13 11 11 10 12 12 10 11 14 17 15 14 15 9 9 10 8 12 15 16 16 16 16 15 14 14 13 12 13 12 10 10 9 9 9 8 6 3 3 1 1 1
19 17 19 16 19 16 16 17 13 12 13 12 9 11 10 5 6 7 8 11 15 17 17 17 17 17 16 15 14 13 13 12 11 10 10 9 7 5 5 3 2 2 2 3
11 13 10 13 16 19 19 19 20 18 19 18 15 15 10 10 12 11 11 13 17 17 17 17 17 17 17 16 14 13 13 11 10 10 10 9 7 5 5 3 1 1 2 3
10 10 9 8 10 14 17 15 11 14 17 19 19 19 15 12 11 11 12 15 17 17 17 17 17 17 16 15 13 12 12 12 11 10 8 7 6 5 3 1 2 2 3 4
7 10 11 10 12 15 14 15 14 14 15 17 18 13 6 6 6 7 10 14 18 19 19 18 17 17 16 15 14 12 12 11 10 9 8 7 5 3 1 0 1 3 4 5
1 6 12 12 6 5 11 15 16 16 17 17 17 16 4 2 5 6 8 10 16 19 19 19 18 18 16 16 14 13 12 11 10 8 7 6 4 2 1 2 3 4 6 7
2 4 9 11 9 8 9 10 11 13 14 16 18 15 2 1 3 4 5 7 13 17 17 17 17 17 16 15 13 12 11 10 9 7 6 4 2 1 2 3 5 6 7 8
3 5 10 14 7 2 5 7 7 10 14 17 18 17 9 6 7 7 6 7 11 15 17 17 16 16 15 13 12 11 10 9 7 5 4 2 0 2 3 5 6 8 9 10
3 8 10 11 11 11 13 14 13 14 16 17 19 18 15 13 12 11 8 7 12 15 16 16 15 14 14 12 11 10 9 7 6 4 2 0 2 3 4 6 8 9 10 11
2 6 9 13 13 15 18 18 19 19 19 21 22 22 15 12 10 9 8 8 11 13 15 15 14 14 13 11 10 9 8 6 4 2 1 2 3 5 6 7 8 9 9 9
4 5 9 13 11 12 17 14 14 15 16 17 18 13 12 12 11 10 8 6 8 11 13 14 14 13 12 10 9 8 7 5 3 1 2 3 5 6 7 7 7 7 7 7
6 7 7 9 8 12 1 6 5 8 6 6 8 10 11 10 9 8 7 2 5 10 14 15 15 14 12 11 9 7 5 3 1 1 3 4 5 6 5 5 6 6 6 7
8 8 7 8 10 10 5 4 7 7 5 7 10 11 11 8 4 6 10 8 10 14 16 16 16 15 12 10 8 6 4 2 1 2 3 5 5 5 5 6 6 6 6 7
4 7 8 8 8 7 3 7 8 7 8 8 12 13 12 9 6 4 10 14 17 18 17 16 15 14 11 8 7 6 4 2 2 3 4 5 6 6 6 5 6 6 6 8
6 6 9 10 9 6 6 10 9 8 5 13 14 13 9 6 5 9 14 16 17 18 17 15 14 11 9 7 6 5 4 4 4 5 6 7 7 6 5 5 5 7 7 8
3 4 6 6 7 3 9 10 7 11 16 16 13 9 3 8 13 15 16 17 17 17 16 14 12 10 8 6 5 5 5 5 5 6 7 6 5 5 5 5 6 7 8 8
3 3 4 4 5 8 10 10 12 13 14 12 7 1 9 14 16 17 17 16 16 15 14 12 12 10 7 4 4 6 6 6 6 6 6 5 5 5 5 5 6 6 7 8
2 2 5 6 5 8 10 11 10 9 6 3 3 9 14 17 18 18 16 15 14 14 12 11 11 10 8 7 7 8 7 6 6 6 5 4 4 5 5 6 7 7 7 8
3 3 5 6 5 5 8 10 8 8 9 11 14 15 17 19 19 17 15 15 14 13 11 9 9 10 9 9 9 8 7 6 6 6 5 5 5 6 5 5 5 7 7 8
2 3 3 3 5 3 5 8 9 11 13 14 17 17 17 18 18 17 15 14 13 11 10 9 10 10 10 10 9 8 7 6 5 5 5 5 6 6 6 6 4 2 3 4
Wind_Direction
190 212 218 219 223 248 259 253 245 243 246 257 249 245 240 230 232 231 223 216 209 203 182 167 166 162 160 158 154 149 143 141 141 140 139 130 117 109 99 89 82 78 73 69
195 224 228 229 225 233 239 244 248 249 236 258 257 251 247 239 235 234 228 219 211 193 175 170 167 165 161 154 150 145 144 144 146 135 122 115 113 103 95 89 81 76 72 64
219 228 212 210 212 223 234 244 253 259 260 251 261 254 238 228 230 233 233 226 214 200 189 177 170 162 155 151 151 146 141 138 131 130 124 123 120 127 119 107 92 76 72 69
231 225 195 210 221 226 240 242 253 260 261 259 244 267 245 220 225 228 228 222 215 202 192 180 170 157 150 142 138 136 134 131 133 140 142 145 147 137 117 113 98 91 73 65
222 222 215 222 229 228 245 255 250 254 259 265 251 259 263 217 235 236 226 218 210 198 186 174 165 152 142 138 136 132 127 124 125 125 129 132 123 117 120 113 105 100 88 63
237 217 224 232 234 231 237 241 247 249 253 253 251 254 261 230 238 248 229 209 200 188 174 161 149 141 138 137 135 132 125 121 121 120 119 115 115 116 115 113 113 126 91 52
228 224 219 228 226 208 218 231 240 239 233 249 245 248 260 258 247 254 242 204 191 179 169 159 153 149 146 145 141 136 130 125 122 117 113 112 115 119 117 116 105 20 5 2
221 226 218 220 230 231 221 230 244 261 262 264 232 243 260 245 257 259 244 208 184 179 175 169 163 156 153 149 145 141 136 132 128 119 114 113 119 111 105 90 54 34 344 350
231 232 214 218 227 235 238 235 246 259 268 274 268 267 260 248 247 241 226 201 186 181 176 169 165 159 155 152 150 146 140 134 127 122 120 115 105 94 96 109 102 15 336 319
248 241 215 208 220 227 242 246 240 244 256 261 263 260 261 256 249 234 217 201 187 178 171 168 166 161 156 152 147 145 140 135 131 129 125 118 114 110 105 67 42 345 315 307
236 237 227 211 221 228 215 227 234 249 254 263 268 269 291 259 270 261 231 206 187 179 172 169 167 162 156 152 150 149 142 137 136 129 122 118 113 106 104 313 294 296 297 297
274 247 241 231 232 281 245 237 236 247 254 257 267 274 300 268 283 277 252 211 187 178 174 170 166 161 158 158 155 150 144 140 135 129 124 118 115 121 247 270 283 285 285 289
326 244 240 229 218 215 231 237 248 253 261 263 266 274 134 123 289 285 263 212 181 173 172 169 165 164 162 159 154 149 143 134 128 125 122 119 128 227 275 285 288 288 287 288
290 253 257 262 301 312 248 242 248 256 256 262 263 274 275 291 303 298 271 221 181 172 172 169 168 166 161 156 150 140 130 124 119 115 113 114 239 285 291 294 292 289 289 291
302 254 257 270 285 284 277 272 269 266 270 274 278 281 287 304 309 303 282 229 188 177 174 171 167 160 153 145 135 125 118 112 109 105 96 3 290 291 292 293 292 292 293 294
311 270 266 263 264 271 273 270 269 268 270 272 275 277 294 311 310 300 279 233 197 183 174 165 154 146 141 133 124 115 108 101 94 81 11 327 312 303 298 297 298 300 304 310
262 262 266 266 265 277 267 270 269 272 273 277 280 303 335 325 324 318 301 252 203 176 161 148 139 130 123 117 112 105 100 95 91 44 339 325 313 307 308 312 319 327 334 337
257 258 260 266 261 251 264 43 344 297 296 353 347 348 348 341 341 351 346 315 161 144 135 127 122 117 113 111 106 102 98 95 67 345 330 318 316 322 336 352 7 4 354 348
231 239 247 251 253 262 233 46 356 311 279 27 1 353 352 348 333 37 34 61 99 111 113 113 113 112 110 108 107 105 101 83 23 350 344 350 354 6 28 36 25 10 356 350
191 222 238 238 250 255 81 27 341 285 253 37 3 350 345 335 314 53 71 87 95 100 104 108 108 107 104 103 104 100 91 66 27 19 30 42 51 58 55 39 17 6 353 351
197 207 228 241 245 261 41 354 323 262 317 353 343 338 338 353 41 95 94 94 98 101 103 104 104 103 105 106 103 96 80 57 48 63 75 76 73 66 49 29 14 3 358 358
247 239 232 242 247 249 22 346 326 313 321 320 323 332 31 97 101 101 100 100 101 101 102 103 104 104 103 102 103 92 72 69 79 87 86 79 62 41 33 21 15 11 360 358
244 297 301 271 292 352 350 330 315 307 300 302 309 20 121 116 110 106 103 102 102 104 107 110 112 111 110 107 89 80 78 85 93 93 86 74 57 39 24 15 16 12 9 1
207 269 275 280 299 347 348 342 340 336 328 349 89 112 116 114 112 109 108 109 111 114 117 121 121 116 109 97 83 78 81 89 94 89 80 65 46 39 36 16 19 16 10 3
321 302 286 286 322 351 11 13 17 39 64 84 94 104 111 112 111 112 114 117 120 122 125 127 120 111 102 92 84 80 82 89 89 82 70 55 45 35 24 33 31 20 32 15
345 319 312 350 21 34 37 44 60 75 84 93 100 102 106 111 116 117 118 121 124 126 127 121 113 106 100 94 85 77 75 78 81 78 62 48 40 32 20 22 51 115 32 10
Height
1500 1500 1496 1493 1493 1492 1493 1495 1494 1490 1492 1496 1493 1491 1491 1495 1496 1495 1496 1498 1501 1505 1508 1510 1513 1516 1518 1521 1524 1526 1529 1531 1535 1537 1539 1540 1541 1542 1543 1543 1543 1544 1544 1544
1497 1494 1488 1489 1492 1497 1498 1500 1496 1492 1493 1496 1491 1490 1488 1491 1492 1492 1493 1495 1498 1501 1504 1506 1509 1512 1515 1517 1521 1523 1526 1529 1532 1534 1536 1537 1538 1540 1541 1541 1541 1541 1541 1541
1488 1483 1485 1491 1495 1498 1496 1496 1493 1491 1488 1490 1492 1488 1484 1485 1489 1490 1490 1491 1493 1496 1500 1503 1506 1508 1511 1514 1516 1520 1523 1525 1528 1531 1533 1534 1535 1537 1538 1538 1538 1538 1538 1537
1483 1480 1487 1490 1490 1491 1493 1487 1490 1491 1492 1486 1485 1489 1473 1475 1481 1483 1484 1486 1488 1492 1496 1499 1501 1504 1507 1509 1513 1516 1519 1522 1525 1527 1530 1532 1533 1534 1535 1535 1535 1535 1534 1534
1478 1477 1482 1486 1484 1486 1486 1483 1486 1487 1488 1488 1484 1489 1475 1470 1476 1473 1475 1479 1483 1488 1492 1495 1498 1500 1503 1506 1510 1513 1516 1519 1522 1524 1527 1529 1530 1531 1532 1532 1532 1532 1531 1530
1471 1474 1477 1477 1478 1480 1482 1485 1485 1485 1484 1491 1481 1482 1475 1463 1467 1464 1466 1473 1479 1484 1489 1492 1494 1497 1500 1504 1507 1510 1514 1517 1519 1522 1524 1526 1528 1528 1529 1530 1530 1530 1530 1529
1474 1472 1474 1476 1477 1480 1482 1488 1492 1489 1486 1480 1465 1473 1468 1456 1459 1461 1463 1469 1476 1481 1485 1488 1490 1494 1498 1502 1506 1509 1512 1515 1518 1520 1522 1523 1524 1525 1525 1527 1527 1528 1529 1528
1469 1470 1466 1469 1473 1474 1476 1480 1489 1491 1481 1468 1462 1470 1459 1455 1460 1462 1464 1467 1472 1477 1481 1485 1488 1491 1496 1500 1503 1507 1510 1513 1515 1517 1519 1520 1522 1523 1524 1524 1525 1526 1527 1527
1460 1463 1456 1461 1464 1467 1470 1471 1468 1476 1477 1480 1469 1458 1453 1455 1458 1459 1461 1464 1469 1474 1479 1483 1486 1489 1493 1497 1501 1505 1508 1511 1513 1515 1516 1518 1519 1520 1521 1521 1522 1524 1524 1524
1459 1464 1458 1459 1462 1463 1462 1461 1467 1475 1485 1484 1470 1462 1454 1450 1449 1451 1456 1461 1466 1472 1477 1481 1484 1488 1491 1495 1499 1503 1506 1509 1511 1513 1515 1517 1517 1519 1519 1521 1521 1521 1521 1521
1463 1466 1460 1460 1461 1458 1463 1464 1465 1464 1463 1472 1472 1460 1441 1444 1447 1449 1452 1456 1462 1468 1473 1478 1482 1486 1490 1494 1497 1501 1504 1507 1509 1512 1513 1514 1516 1517 1518 1519 1519 1519 1519 1519
1467 1464 1460 1455 1452 1456 1454 1454 1458 1467 1465 1461 1464 1459 1441 1445 1449 1451 1452 1455 1460 1466 1472 1476 1481 1485 1489 1493 1496 1500 1502 1505 1508 1510 1511 1512 1514 1515 1516 1518 1518 1518 1517 1517
1469 1469 1469 1463 1462 1458 1457 1455 1455 1456 1458 1460 1462 1454 1443 1447 1449 1452 1454 1456 1461 1467 1472 1477 1481 1484 1488 1492 1495 1498 1502 1504 1507 1508 1510 1511 1513 1514 1515 1516 1516 1516 1515 1514
1474 1469 1469 1466 1459 1459 1461 1459 1458 1459 1458 1454 1451 1447 1442 1445 1448 1451 1454 1457 1461 1466 1471 1475 1480 1484 1488 1491 1495 1497 1501 1503 1505 1507 1509 1511 1512 1514 1514 1514 1514 1514 1513 1511
1474 1469 1466 1465 1464 1464 1463 1462 1460 1460 1458 1458 1451 1448 1445 1447 1450 1452 1454 1457 1460 1465 1470 1474 1479 1483 1487 1491 1494 1497 1499 1502 1504 1506 1509 1511 1512 1512 1512 1512 1512 1511 1510 1508
1475 1473 1471 1470 1466 1465 1464 1460 1459 1458 1457 1455 1452 1450 1448 1450 1452 1453 1455 1456 1459 1464 1469 1474 1479 1483 1487 1491 1494 1496 1498 1501 1503 1506 1509 1511 1512 1511 1511 1510 1509 1508 1506 1503
1474 1476 1474 1470 1463 1468 1465 1456 1456 1455 1452 1453 1452 1452 1453 1454 1455 1456 1456 1457 1459 1464 1469 1473 1478 1482 1486 1491 1494 1496 1498 1501 1504 1507 1509 1510 1510 1510 1509 1508 1506 1504 1502 1499
1480 1478 1474 1470 1471 1478 1459 1463 1463 1462 1458 1460 1461 1461 1462 1461 1461 1460 1459 1459 1460 1464 1469 1473 1477 1482 1487 1491 1494 1496 1499 1502 1505 1507 1508 1508 1509 1508 1507 1505 1503 1501 1498 1496
1480 1478 1474 1471 1468 1462 1458 1467 1469 1467 1461 1467 1466 1465 1464 1463 1461 1462 1463 1462 1463 1466 1470 1474 1479 1484 1488 1492 1495 1497 1501 1504 1506 1507 1507 1507 1507 1506 1504 1502 1500 1498 1496 1493
1479 1478 1475 1472 1476 1470 1465 1471 1471 1469 1463 1469 1469 1467 1465 1463 1459 1466 1469 1467 1468 1470 1474 1478 1483 1487 1491 1494 1497 1500 1503 1505 1506 1507 1506 1505 1505 1504 1502 1500 1499 1497 1494 1492
1473 1475 1473 1472 1473 1464 1471 1472 1469 1469 1463 1470 1469 1469 1467 1467 1469 1472 1472 1473 1474 1476 1480 1483 1487 1491 1494 1497 1500 1502 1505 1506 1506 1506 1505 1504 1503 1502 1501 1500 1497 1495 1493 1490
1473 1472 1471 1471 1472 1472 1475 1473 1473 1471 1471 1470 1469 1469 1469 1470 1472 1474 1476 1478 1480 1482 1485 1489 1492 1495 1499 1501 1503 1505 1506 1506 1506 1505 1505 1504 1503 1503 1501 1499 1497 1495 1492 1490
1476 1476 1473 1473 1472 1474 1476 1477 1476 1474 1471 1469 1469 1469 1470 1472 1475 1478 1480 1483 1486 1488 1491 1494 1497 1500 1503 1505 1506 1507 1507 1507 1507 1506 1506 1505 1504 1502 1501 1500 1498 1496 1493 1490
1477 1479 1477 1475 1472 1477 1478 1477 1475 1472 1469 1468 1468 1469 1471 1474 1478 1481 1485 1488 1492 1495 1497 1500 1503 1505 1507 1508 1509 1509 1509 1508 1508 1508 1507 1506 1505 1504 1502 1500 1498 1496 1493 1490
1479 1479 1478 1477 1478 1479 1479 1478 1476 1472 1470 1469 1470 1472 1475 1478 1482 1486 1490 1494 1497 1500 1503 1505 1507 1509 1510 1511 1511 1511 1510 1510 1510 1509 1508 1508 1507 1505 1503 1500 1498 1496 1493 1490
1482 1483 1482 1482 1484 1483 1484 1481 1478 1476 1475 1476 1476 1479 1482 1484 1488 1492 1495 1499 1502 1505 1507 1509 1511 1512 1514 1514 1514 1513 1512 1512 1512 1511 1510 1509 1508 1506 1504 1502 1499 1496 1494 1491